Airfield :
LOGIN :

Register | Disclaimer

   EN    FR    IT 

 










Legend :    VFR   Marginal VFR   IFR   Intensive IFR   Very Intensive IFR
Visi :
Ceiling :
>= 8 km
>= 3000ft
5 to 8 km
1000 to 3000 ft
1500m to 5 km
500 to 1000 ft
800 to 1500m
200 to 500 ft
< 800m
< 200 ft
Symbols :   Thunderstorms  Fog  Heavy snow  Heavy precipitations  Wind > 20 kt
SIGMETs :     Misc.  Thunderstorms  Icing  Turbulence  Mountain Waves  Volcanic Ashes







- Airport Elevation : 53 ft
- IATA code : LBC


EDHL - Lübeck

CURRENT METAR :
  • 260920Z 26010KT 240V300 CAVOK 30/19 Q1019

EXPIRED METARs :
  • 260850Z 26008KT 230V320 CAVOK 29/19 Q1019
  • 260820Z 27007KT 230V320 CAVOK 29/20 Q1019
  • 260750Z 26006KT 230V300 CAVOK 28/20 Q1019
  • 260720Z 27006KT 230V320 CAVOK 27/19 Q1019
  • 260650Z 25005KT CAVOK 27/20 Q1018

TAF TAF EDHL
Valid from the 26 at 09:00 until the 26 at 18:00 UTC


260800Z 2609/2618 28010KT CAVOK
BECMG 2609/2612 29015G25KT
No reported NOTAMs for that airfield.



MET'MAP, your aeronautical weather chart ! - Copyright ORBIFLY December 2007 - Disclaimer

ORBIFLY MET'MAP TEAM :

Programming & Development : Alexandra Zaïnal
Concept & Development : Baudouin d'Aumeries
Co-Development & Prog : Marc-Olivier Méhu
Technical & hardware support : Manuel Goepfert

Contact : metmap@orbifly.com




SOURCES & CREDITS :

   NOAA